User: anonymous   Login
Location: Linz
(48.3300°N, 14.3000°E)
Time: 02:09:27
(UTC+01:00)
Language:

YUBILEINY - Orbit

View from above orbital plane
View from above orbital plane
View from above satellite
View from above satellite

Ground track
Ground track

The orbit data is extracted from the following two-line orbital elements,

1 32953U 08025A   19081.75601933  .00000020  00000-0  75656-4 0  9995
2 32953  82.5065 199.4350 0018078 323.5375  36.4473 12.43088226491381
Epoch (UTC): 22 March 2019 18:08:40
Eccentricity: 0.0018078
inclination: 82.5065°
perigee height: 1479 km
apogee height: 1508 km
right ascension of ascending node: 199.4350°
argument of perigee: 323.5375°
revolutions per day: 12.43088226
mean anomaly at epoch: 36.4473°
orbit number at epoch: 49138

The dashed part of the orbit path shows where the satellite is in the earth's shadow,  

DLR